TimeCST,TemperatureF,Dew PointF,Humidity,Sea Level PressureIn,VisibilityMPH,Wind Direction,Wind SpeedMPH,Gust SpeedMPH,PrecipitationIn,Events,Conditions,WindDirDegrees,DateUTC
12:15 AM,24.6,21.9,89,30.18,10.0,ESE,4.6,-,N/A,,Clear,110,2013-02-08 06:15:00
12:35 AM,27.5,24.8,90,30.19,10.0,SE,5.8,-,N/A,,Clear,130,2013-02-08 06:35:00
12:55 AM,26.8,23.9,89,30.18,10.0,ESE,5.8,-,N/A,,Clear,120,2013-02-08 06:55:00
1:15 AM,23.5,21.4,91,30.18,10.0,SE,3.5,-,N/A,,Clear,130,2013-02-08 07:15:00
1:35 AM,22.3,20.3,92,30.18,10.0,SE,4.6,-,N/A,,Clear,140,2013-02-08 07:35:00
2:15 AM,23.9,21.9,92,30.19,7.0,ESE,4.6,-,N/A,,Clear,120,2013-02-08 08:15:00
2:35 AM,21.7,19.9,93,30.19,7.0,SE,4.6,-,N/A,,Clear,130,2013-02-08 08:35:00
2:55 AM,24.8,23.2,94,30.19,7.0,ESE,5.8,-,N/A,,Clear,120,2013-02-08 08:55:00
3:35 AM,23.7,22.1,94,30.18,7.0,ESE,5.8,-,N/A,,Clear,120,2013-02-08 09:35:00
3:55 AM,24.8,23.4,94,30.17,7.0,SE,5.8,-,N/A,,Clear,130,2013-02-08 09:55:00
4:15 AM,24.4,23.0,94,30.17,5.0,ESE,6.9,-,N/A,,Clear,120,2013-02-08 10:15:00
4:35 AM,23.9,22.6,95,30.17,5.0,ESE,8.1,-,N/A,,Clear,120,2013-02-08 10:35:00
4:55 AM,23.7,22.3,94,30.17,5.0,ESE,6.9,-,N/A,,Clear,120,2013-02-08 10:55:00
5:15 AM,23.4,21.9,94,30.17,5.0,ESE,6.9,-,N/A,,Clear,120,2013-02-08 11:15:00
5:35 AM,23.0,21.6,94,30.16,5.0,ESE,8.1,-,N/A,,Clear,120,2013-02-08 11:35:00
6:15 AM,23.0,21.7,95,30.16,5.0,SE,8.1,-,N/A,,Clear,130,2013-02-08 12:15:00
6:35 AM,23.0,21.6,94,30.15,5.0,SE,9.2,-,N/A,,Clear,130,2013-02-08 12:35:00
6:55 AM,22.6,21.2,94,30.15,5.0,SE,9.2,-,N/A,,Clear,130,2013-02-08 12:55:00
7:15 AM,22.1,20.8,95,30.16,2.5,ESE,6.9,-,N/A,Snow,Light Snow,120,2013-02-08 13:15:00
7:35 AM,23.0,21.7,95,30.15,1.5,SE,8.1,-,N/A,Snow,Light Snow,130,2013-02-08 13:35:00
7:55 AM,23.7,22.5,95,30.15,0.5,SE,10.4,-,N/A,Snow,Light Snow,140,2013-02-08 13:55:00
8:15 AM,24.6,23.4,95,30.16,1.0,SE,9.2,-,N/A,,Overcast,140,2013-02-08 14:15:00
8:35 AM,24.8,23.7,96,30.16,0.8,SSE,10.4,-,N/A,,Overcast,150,2013-02-08 14:35:00
8:55 AM,25.5,24.6,96,30.17,0.5,SE,8.1,-,N/A,Fog,Light Freezing Fog,140,2013-02-08 14:55:00
9:15 AM,27.3,26.2,96,30.16,1.8,SSE,10.4,-,N/A,,Overcast,150,2013-02-08 15:15:00
9:35 AM,30.0,28.9,96,30.16,5.0,SSE,10.4,-,N/A,,Scattered Clouds,150,2013-02-08 15:35:00
9:55 AM,31.8,30.7,96,30.15,7.0,SSE,12.7,-,N/A,,Clear,150,2013-02-08 15:55:00
10:15 AM,33.3,31.1,92,30.15,10.0,SSE,13.8,-,N/A,,Clear,150,2013-02-08 16:15:00
10:35 AM,36.5,31.3,81,30.15,10.0,SSE,17.3,-,N/A,,Clear,150,2013-02-08 16:35:00
10:55 AM,39.6,30.9,71,30.13,10.0,SSE,18.4,21.9,N/A,,Clear,160,2013-02-08 16:55:00
11:15 AM,40.5,29.7,65,30.13,10.0,South,18.4,-,N/A,,Clear,170,2013-02-08 17:15:00
11:35 AM,42.3,29.7,61,30.11,10.0,SSE,20.7,-,N/A,,Clear,160,2013-02-08 17:35:00
11:55 AM,43.0,28.4,56,30.11,10.0,South,21.9,25.3,N/A,,Clear,170,2013-02-08 17:55:00
12:15 PM,43.0,28.9,58,30.10,10.0,South,21.9,28.8,N/A,,Clear,170,2013-02-08 18:15:00
12:35 PM,45.3,29.1,53,30.08,10.0,South,20.7,28.8,N/A,,Clear,170,2013-02-08 18:35:00
12:55 PM,44.8,29.3,55,30.07,10.0,SSE,21.9,27.6,N/A,,Clear,160,2013-02-08 18:55:00
1:15 PM,44.8,29.5,55,30.05,10.0,South,21.9,28.8,N/A,,Clear,170,2013-02-08 19:15:00
1:35 PM,44.8,29.3,55,30.04,10.0,SSE,24.2,28.8,N/A,,Clear,150,2013-02-08 19:35:00
1:55 PM,45.5,29.7,54,30.04,10.0,SSE,23.0,27.6,N/A,,Clear,150,2013-02-08 19:55:00
2:15 PM,46.0,29.8,53,30.03,10.0,SSE,21.9,-,N/A,,Clear,150,2013-02-08 20:15:00
2:35 PM,45.5,29.5,54,30.02,10.0,SE,20.7,-,N/A,,Clear,140,2013-02-08 20:35:00
2:55 PM,46.2,29.1,51,29.99,10.0,SSE,23.0,29.9,N/A,,Clear,150,2013-02-08 20:55:00
3:15 PM,45.1,29.3,54,29.99,10.0,SSE,24.2,29.9,N/A,,Clear,150,2013-02-08 21:15:00
3:35 PM,44.8,29.3,55,29.98,10.0,SSE,25.3,31.1,N/A,,Clear,160,2013-02-08 21:35:00
3:55 PM,43.3,29.3,58,29.97,10.0,SSE,19.6,28.8,N/A,,Clear,150,2013-02-08 21:55:00
4:15 PM,42.8,29.5,59,29.97,10.0,SSE,20.7,28.8,N/A,,Clear,150,2013-02-08 22:15:00
4:35 PM,42.4,30.0,61,29.97,10.0,SSE,20.7,27.6,N/A,,Clear,150,2013-02-08 22:35:00
4:55 PM,44.4,30.2,57,29.97,10.0,SSE,21.9,32.2,N/A,,Clear,150,2013-02-08 22:55:00
5:15 PM,41.9,30.2,63,29.97,10.0,SSE,23.0,-,N/A,,Clear,160,2013-02-08 23:15:00
5:35 PM,41.7,30.6,65,29.95,10.0,SSE,19.6,26.5,N/A,,Clear,150,2013-02-08 23:35:00
5:55 PM,40.3,30.2,67,29.94,10.0,SSE,23.0,27.6,N/A,,Clear,150,2013-02-08 23:55:00
6:15 PM,39.2,30.2,70,29.93,10.0,SSE,23.0,28.8,N/A,,Clear,150,2013-02-09 00:15:00
6:35 PM,38.3,30.2,73,29.93,10.0,SE,20.7,26.5,N/A,,Clear,140,2013-02-09 00:35:00
6:55 PM,37.4,30.2,75,29.93,10.0,SSE,19.6,26.5,N/A,,Clear,150,2013-02-09 00:55:00
7:15 PM,37.4,30.2,75,29.94,10.0,SSE,20.7,25.3,N/A,,Clear,160,2013-02-09 01:15:00
7:35 PM,36.9,30.2,77,29.94,10.0,SSE,18.4,26.5,N/A,,Clear,160,2013-02-09 01:35:00
7:55 PM,37.0,30.0,76,29.93,10.0,SSE,18.4,26.5,N/A,,Clear,150,2013-02-09 01:55:00
8:15 PM,37.6,30.2,75,29.93,10.0,SSE,23.0,28.8,N/A,,Clear,160,2013-02-09 02:15:00
8:35 PM,36.9,29.8,76,29.93,10.0,SSE,24.2,31.1,N/A,,Clear,160,2013-02-09 02:35:00
8:55 PM,36.5,29.8,77,29.93,10.0,SSE,23.0,27.6,N/A,,Clear,160,2013-02-09 02:55:00
9:15 PM,36.1,29.3,76,29.92,10.0,SSE,23.0,31.1,N/A,,Clear,160,2013-02-09 03:15:00
9:35 PM,35.8,29.1,77,29.93,10.0,SSE,20.7,28.8,N/A,,Clear,160,2013-02-09 03:35:00
9:55 PM,34.7,29.1,80,29.92,10.0,SSE,21.9,26.5,N/A,,Clear,160,2013-02-09 03:55:00
10:15 PM,34.3,28.9,81,29.92,10.0,SSE,21.9,28.8,N/A,,Clear,160,2013-02-09 04:15:00
10:35 PM,34.5,28.4,78,29.91,10.0,SSE,25.3,29.9,N/A,,Clear,160,2013-02-09 04:35:00
10:55 PM,35.1,28.0,76,29.90,10.0,SSE,25.3,31.1,N/A,,Clear,160,2013-02-09 04:55:00
11:15 PM,34.9,27.5,74,29.90,10.0,SSE,23.0,28.8,N/A,,Clear,160,2013-02-09 05:15:00
11:35 PM,34.7,27.5,75,29.89,10.0,SSE,23.0,27.6,N/A,,Clear,160,2013-02-09 05:35:00
11:55 PM,34.0,27.5,77,29.89,10.0,SSE,23.0,-,N/A,,Clear,160,2013-02-09 05:55:00